• Em Portugal
  • Lista de países
  • Para 7 dias
  • Temperatura da água
  • Mapas de satélite
  • Mapa do tempo
  • Widgets de tempo
  • user-avatar
    Iniciar Sessão

    Previsão horária em Jozefow

    Hoje, 20 Abril, Sexta-feira

    Tempo Temperatura Precipitação Vento Pressão Humidade
    00:00 +10°C° 0 mm 3 m/s 756 mmHg 73%
    01:00 +9°C° 0 mm 3 m/s 756 mmHg 74%
    02:00 +8°C° 0 mm 2 m/s 756 mmHg 77%
    03:00 +8°C° 0 mm 2 m/s 756 mmHg 79%
    04:00 +7°C° 0 mm 2 m/s 756 mmHg 82%
    05:00 +8°C° 0 mm 2 m/s 756 mmHg 78%
    06:00 +9°C° 0 mm 2 m/s 757 mmHg 74%
    07:00 +10°C° 0 mm 2 m/s 757 mmHg 69%
    08:00 +13°C° 0 mm 2 m/s 757 mmHg 62%
    09:00 +15°C° 0 mm 2 m/s 756 mmHg 55%
    10:00 +16°C° 0 mm 2 m/s 756 mmHg 48%
    11:00 +18°C° 0 mm 2 m/s 756 mmHg 44%
    12:00 +19°C° 0 mm 2 m/s 756 mmHg 40%
    13:00 +20°C° 0 mm 2 m/s 756 mmHg 37%
    14:00 +20°C° 0 mm 2 m/s 755 mmHg 36%
    15:00 +20°C° 0 mm 2 m/s 755 mmHg 36%
    16:00 +21°C° 0 mm 1 m/s 755 mmHg 36%
    17:00 +19°C° 0 mm 1 m/s 754 mmHg 41%
    18:00 +16°C° 0 mm 1 m/s 754 mmHg 46%
    19:00 +14°C° 0 mm 0 m/s 754 mmHg 51%
    20:00 +14°C° 0 mm 1 m/s 754 mmHg 53%
    21:00 +13°C° 0 mm 1 m/s 754 mmHg 55%
    22:00 +13°C° 0 mm 2 m/s 754 mmHg 57%
    23:00 +12°C° 0 mm 2 m/s 753 mmHg 59%

    Amanhã, 21 Abril, Sábado

    Tempo Temperatura Precipitação Vento Pressão Humidade
    00:00 +12°C° 0 mm 2 m/s 753 mmHg 61%
    01:00 +10°C° 0 mm 2 m/s 753 mmHg 63%
    02:00 +10°C° 0 mm 2 m/s 752 mmHg 63%
    03:00 +10°C° 0 mm 3 m/s 752 mmHg 63%
    04:00 +9°C° 0 mm 3 m/s 751 mmHg 64%
    05:00 +11°C° 0 mm 3 m/s 751 mmHg 60%
    06:00 +13°C° 0 mm 4 m/s 751 mmHg 57%
    07:00 +14°C° 0 mm 4 m/s 750 mmHg 54%
    08:00 +17°C° 0 mm 5 m/s 750 mmHg 52%
    09:00 +20°C° 0 mm 5 m/s 750 mmHg 49%
    10:00 +22°C° 0 mm 6 m/s 750 mmHg 47%
    11:00 +23°C° 0 mm 6 m/s 749 mmHg 46%
    12:00 +24°C° 0 mm 6 m/s 749 mmHg 46%
    13:00 +26°C° 0 mm 7 m/s 749 mmHg 45%
    14:00 +26°C° 0 mm 6 m/s 748 mmHg 47%
    15:00 +24°C° 0 mm 6 m/s 748 mmHg 49%
    16:00 +23°C° 0 mm 5 m/s 748 mmHg 51%
    17:00 +21°C° 0,1 mm 5 m/s 748 mmHg 56%
    18:00 +19°C° 0,1 mm 4 m/s 748 mmHg 61%
    19:00 +18°C° 0,1 mm 3 m/s 748 mmHg 66%
    20:00 +16°C° 0 mm 3 m/s 749 mmHg 67%
    21:00 +14°C° 0 mm 3 m/s 749 mmHg 68%
    22:00 +14°C° 0 mm 2 m/s 749 mmHg 69%
    23:00 +13°C° 0 mm 2 m/s 749 mmHg 70%

    Depois de amanhã, 22 Abril, Domingo

    Tempo Temperatura Precipitação Vento Pressão Humidade
    00:00 +12°C° 0 mm 2 m/s 749 mmHg 71%
    01:00 +10°C° 0 mm 2 m/s 750 mmHg 72%
    02:00 +9°C° 0 mm 2 m/s 750 mmHg 74%
    03:00 +9°C° 0 mm 2 m/s 750 mmHg 75%
    04:00 +8°C° 0 mm 2 m/s 750 mmHg 76%
    05:00 +9°C° 0 mm 2 m/s 750 mmHg 72%
    06:00 +10°C° 0 mm 2 m/s 750 mmHg 68%
    07:00 +12°C° 0 mm 2 m/s 750 mmHg 64%
    08:00 +14°C° 0 mm 2 m/s 750 mmHg 57%
    09:00 +14°C° 0 mm 3 m/s 750 mmHg 50%
    10:00 +17°C° 0 mm 3 m/s 750 mmHg 43%
    11:00 +18°C° 0 mm 3 m/s 749 mmHg 41%
    12:00 +19°C° 0 mm 3 m/s 749 mmHg 38%
    13:00 +19°C° 0 mm 3 m/s 749 mmHg 36%
    14:00 +19°C° 0 mm 3 m/s 748 mmHg 37%
    15:00 +19°C° 0 mm 3 m/s 748 mmHg 37%
    16:00 +19°C° 0 mm 3 m/s 748 mmHg 38%
    17:00 +18°C° 0 mm 2 m/s 748 mmHg 44%
    18:00 +16°C° 0 mm 2 m/s 748 mmHg 50%
    19:00 +14°C° 0 mm 1 m/s 747 mmHg 56%
    20:00 +13°C° 0 mm 1 m/s 748 mmHg 58%
    21:00 +12°C° 0 mm 1 m/s 748 mmHg 61%
    22:00 +11°C° 0 mm 0 m/s 748 mmHg 64%
    23:00 +10°C° 0 mm 0 m/s 748 mmHg 65%

    23 Abril, Segunda-feira

    Tempo Temperatura Precipitação Vento Pressão Humidade
    00:00 +10°C° 0 mm 0 m/s 748 mmHg 67%
    01:00 +9°C° 0 mm 0 m/s 748 mmHg 69%
    02:00 +10°C° 0 mm 1 m/s 747 mmHg 70%
    03:00 +10°C° 0 mm 1 m/s 747 mmHg 71%
    04:00 +9°C° 0 mm 1 m/s 747 mmHg 72%
    05:00 +11°C° 0 mm 1 m/s 747 mmHg 67%
    06:00 +13°C° 0 mm 1 m/s 746 mmHg 63%
    07:00 +14°C° 0 mm 1 m/s 746 mmHg 59%
    08:00 +16°C° 0 mm 2 m/s 746 mmHg 54%
    09:00 +18°C° 0 mm 2 m/s 746 mmHg 49%
    10:00 +20°C° 0 mm 2 m/s 746 mmHg 43%
    11:00 +23°C° 0 mm 2 m/s 745 mmHg 42%
    12:00 +24°C° 0 mm 3 m/s 744 mmHg 41%
    13:00 +25°C° 0 mm 3 m/s 744 mmHg 40%
    14:00 +25°C° 0,2 mm 3 m/s 743 mmHg 46%
    15:00 +24°C° 0,2 mm 3 m/s 743 mmHg 52%
    16:00 +22°C° 0,2 mm 3 m/s 742 mmHg 59%
    17:00 +21°C° 1,3 mm 3 m/s 742 mmHg 68%
    18:00 +19°C° 1,3 mm 3 m/s 742 mmHg 78%
    19:00 +17°C° 1,3 mm 3 m/s 742 mmHg 88%
    20:00 +17°C° 0,1 mm 4 m/s 742 mmHg 89%
    21:00 +15°C° 0,1 mm 4 m/s 742 mmHg 90%
    22:00 +15°C° 0,1 mm 5 m/s 742 mmHg 91%
    23:00 +14°C° 0,1 mm 5 m/s 743 mmHg 90%

    24 Abril, Terça-feira

    Tempo Temperatura Precipitação Vento Pressão Humidade
    00:00 +13°C° 0,1 mm 5 m/s 744 mmHg 88%
    01:00 +13°C° 0,1 mm 6 m/s 744 mmHg 87%
    02:00 +12°C° 0 mm 5 m/s 745 mmHg 87%
    03:00 +10°C° 0 mm 5 m/s 745 mmHg 88%
    04:00 +10°C° 0 mm 4 m/s 746 mmHg 88%
    05:00 +10°C° 0 mm 5 m/s 746 mmHg 83%
    06:00 +10°C° 0 mm 5 m/s 746 mmHg 78%
    07:00 +11°C° 0 mm 6 m/s 746 mmHg 72%
    08:00 +11°C° 0,1 mm 6 m/s 747 mmHg 69%
    09:00 +13°C° 0,1 mm 6 m/s 747 mmHg 66%
    10:00 +14°C° 0,1 mm 6 m/s 747 mmHg 62%
    11:00 +14°C° 0,1 mm 7 m/s 747 mmHg 60%
    12:00 +15°C° 0,1 mm 7 m/s 747 mmHg 58%
    13:00 +15°C° 0,1 mm 7 m/s 747 mmHg 55%
    14:00 +15°C° 0 mm 7 m/s 747 mmHg 56%
    15:00 +15°C° 0 mm 6 m/s 746 mmHg 57%
    16:00 +15°C° 0 mm 6 m/s 746 mmHg 57%
    17:00 +14°C° 0 mm 5 m/s 746 mmHg 62%
    18:00 +13°C° 0 mm 3 m/s 747 mmHg 67%
    19:00 +13°C° 0 mm 2 m/s 747 mmHg 72%
    20:00 +13°C° 0 mm 2 m/s 747 mmHg 74%
    21:00 +13°C° 0 mm 2 m/s 747 mmHg 76%
    22:00 +12°C° 0 mm 2 m/s 747 mmHg 78%
    23:00 +12°C° 0 mm 2 m/s 747 mmHg 79%

    25 Abril, Quarta-feira

    Tempo Temperatura Precipitação Vento Pressão Humidade
    00:00 +11°C° 0 mm 3 m/s 747 mmHg 80%
    01:00 +11°C° 0 mm 3 m/s 747 mmHg 81%
    02:00 +11°C° 0 mm 3 m/s 746 mmHg 80%
    03:00 +11°C° 0 mm 3 m/s 746 mmHg 78%
    04:00 +12°C° 0 mm 3 m/s 746 mmHg 77%
    05:00 +13°C° 0 mm 4 m/s 746 mmHg 74%
    06:00 +14°C° 0 mm 4 m/s 745 mmHg 71%
    07:00 +15°C° 0 mm 5 m/s 745 mmHg 68%
    08:00 +17°C° 0 mm 6 m/s 745 mmHg 62%
    09:00 +20°C° 0 mm 6 m/s 745 mmHg 56%
    10:00 +22°C° 0 mm 7 m/s 744 mmHg 50%
    11:00 +23°C° 0 mm 7 m/s 744 mmHg 47%
    12:00 +24°C° 0 mm 7 m/s 743 mmHg 44%
    13:00 +26°C° 0 mm 7 m/s 743 mmHg 42%
    14:00 +24°C° 0 mm 7 m/s 743 mmHg 44%
    15:00 +24°C° 0 mm 6 m/s 742 mmHg 46%
    16:00 +25°C° 0 mm 5 m/s 742 mmHg 49%
    17:00 +22°C° 0,3 mm 5 m/s 742 mmHg 56%
    18:00 +20°C° 0,3 mm 4 m/s 742 mmHg 63%
    19:00 +18°C° 0,3 mm 4 m/s 742 mmHg 69%
    20:00 +17°C° 0,3 mm 3 m/s 742 mmHg 77%
    21:00 +14°C° 0,3 mm 3 m/s 742 mmHg 84%
    22:00 +14°C° 0,3 mm 2 m/s 743 mmHg 91%
    23:00 +13°C° 0,3 mm 3 m/s 743 mmHg 90%
    Mostrar mais